星链-5331 (STARLINK-5331 )

导读

STARLINK-5331是美国SpaceX星链星座的卫星,于2023年1月19日发射入轨,星链计划旨在构建全球卫星互联网星座,为全球偏远地区及地面网络覆盖不足区域提供高速宽带网络服务,该卫星属于星链后续组网批次,延续星链低轨部署模式,服务全球通信互联布局。

Basic Information
目录编号:
55280
目录名称:
STARLINK-5331
国际标识:
2023-010M
轨道中心:
EARTH
卫星名称:
星链-5331
卫星全名:
星链-5331 (STARLINK-5331 )
卫星状态:
在轨 (已飞行1243 天)
发射日期:
2023-01-19 UTC
国别 :
美国 (US)
星等 :
--
Orbit Information
数据来源 国际轨道数据 AOE轨道数据
星历时间 2026-06-15T00:52:09+0800
14小时前
查看轨道信息
2026-06-15T06:00:00+0800
9小时前
查看轨道信息
半长轴 6950.209km 6950.167km
偏心率 0.0003873 0.0003913
轨道倾角 69.999° 69.998°
近地点辐角 267.677° 266.250°
升交点赤经 159.997° 159.457°
平近点角 92.394° 166.700°
近地点 569.38km 569.31km
远地点 574.764km 574.75km
周期 96.107分钟 96.106分钟
每日圈数 14.983251 14.983384
Detailed Information
固有亮度:
5
最大亮度:
2.5
卫星平台:
Starlink v1.5
覆盖范围:
全球
运营商:
太空探索技术公司
运营商所在国:
美国
制造商(研发单位):
太空探索技术公司
制造商所在国:
美国
使用方式:
暂无
Satellite Introduction
星链(Starlink)计划是由太空探索技术公司(SpaceX)提出的一个巨型低轨卫星互联网星座项目,计划在2019年至2024年间在太空搭建由约1.2万颗卫星组成的“星链”网络,其中1584颗将部署在地球上空550千米处的近地轨道,并从2020年开始工作。该卫星仍在工作。
2D Orbit Map
3D Orbit Map
Orbit Altitude Analysis Chart
Orbit Inclination Analysis Chart
Orbit Comprehensive Analysis Chart
View Comprehensive Chart